Location: Unspecified
(0.0000°N, 0.0000°E)
Time: 18:18:07
(UTC+02:00)

N. Korean satellite - Visible Passes

Search period start: 25 April 2018 00:00
Search period end: 05 May 2018 00:00
Orbit: 458 x 514 km, 97.2° (Epoch: 24 April)

Date Brightness Start Highest point End Pass type
(mag) Time Alt. Az. Time Alt. Az. Time Alt. Az.
25 Apr 9.7 07:28:12 10° ENE 07:29:54 13° ESE 07:31:37 10° SE visible
25 Apr 9.2 20:48:22 10° SSW 20:51:21 23° WSW 20:54:20 10° NW visible
26 Apr 7.4 20:23:50 10° S 20:27:31 57° W 20:31:09 10° NNW visible
28 Apr 10.1 21:12:20 10° WSW 21:12:58 10° WSW 21:13:36 10° W visible
29 Apr 9.8 07:26:08 10° ENE 07:27:40 12° ESE 07:29:11 10° SE visible
29 Apr 9.1 20:46:05 10° SSW 20:49:09 24° W 20:52:10 10° NW visible
30 Apr 7.2 20:21:36 10° S 20:25:17 62° WSW 20:28:54 10° NNW visible
02 May 10.0 21:09:39 10° WSW 21:10:43 11° WSW 21:11:46 10° W visible
03 May 9.9 07:24:04 10° E 07:25:22 12° ESE 07:26:41 10° SE visible
03 May 9.0 20:43:45 10° SSW 20:46:52 26° WSW 20:49:56 10° NW visible
04 May 7.0 20:19:20 10° S 20:23:00 67° WSW 20:26:36 10° NNW visible
